Terug naar catalogus

GLOBAL-4

ActiefCommunicatieVLEO
NORAD 44499·PAYLOAD·🇺🇸 United States

Gelanceerd Aug 19, 2019 vanaf Rocket Lab Launch Complex 1

Loading…

Volgende Passages (komende 24 uur)

TLE

VersSource: Space-Track

Epoch: Sep 14, 2026, 12:34 UTC

1 44499U 19054E   26257.52418233  .00075233  00000-0  49866-3 0  9995
2 44499  45.0026  77.2934 0008112 258.5692 101.4298 15.74591117394394

Volg GLOBAL-4 in realtime met AllMySat

Download on the App Store